Weather Roundup
Issued by NWS Springfield, MO

Home | Current Version | Previous Version | Text Only | Print | Product List | Glossary On
Versions: 1 2 3 4 5 6 7 8 9 10 11 12 13 14 15 16 17 18 19 20 21 22 23 24 25 26 27 28 29 30 31 32 33 34 35 36 37 38 39 40 41 42 43 44 45 46 47 48 49 50
000
NZUS99 KSGF 010407
HRRSGF

HOURLY WEATHER
NATIONAL WEATHER SERVICE SPRINGFIELD MO
1100 PM CDT FRI SEP 30 2016

......SGF CWA......

CITY           SKY/WX    TMP DP  RH WIND       PRES   REMARKS
SPRINGFIELD    CLEAR     55  51  86 CALM      30.09F
JOPLIN         PTCLDY    56  54  93 CALM      30.11S
WEST PLAINS    PTCLDY    59  54  83 NW3       30.11S
ROLLA          CLOUDY    61  56  83 N8        30.08F
OSAGE BEACH    PTCLDY    57  55  93 CALM      30.11F
BRANSON        CLEAR     55  52  88 CALM      30.11S

......SURROUNDING SGF CWA......

CITY           SKY/WX    TMP DP  RH WIND       PRES   REMARKS
CHANUTE        PTCLDY    56  53  90 CALM      30.12S
PARSONS        CLEAR     52  51  97 CALM      30.13R
COFFEYVILLE    CLOUDY    54  52  93 CALM      30.12R
EMPORIA        CLEAR     57  51  80 CALM      30.13S
GROVE OK       PTCLDY    57  55  94 CALM      30.12S
ROGERS AR      PTCLDY    57  53  86 CALM      30.13R
SILOAM SPRINGS PTCLDY    55  45  67 CALM      30.13S
HARRISON AR    CLEAR     57  53  86 W6        30.11S
NEAR YELLVILLE CLEAR     61  54  77 CALM      30.08R

......KANSAS AND MISSOURI......

CITY           SKY/WX    TMP DP  RH WIND       PRES   REMARKS
KANSAS CTY INT PTCLDY    58  52  80 NE7       30.14R
DOWNTOWN KC    CLEAR     60  53  77 NE6       30.13R
COLUMBIA       CLOUDY    62  57  83 N8        30.10F
SEDALIA        CLOUDY    59  55  87 NE6       30.12F
ST JOSEPH      CLEAR     53  51  93 NW5       30.14S
ST LOUIS       LGT RAIN  63  59  87 NW9       30.05F
SPIRIT OF STL  LGT RAIN  62  61  96 NW8       30.05F
KIRKSVILLE     CLOUDY    61  56  83 N6        30.13S
WICHITA        PTCLDY    58  53  84 CALM      30.12S
TOPEKA         MOCLDY    56  52  86 E3        30.13R
OLATHE         CLEAR     58  53  84 E5        30.13S

......TENNESSEE......

CITY           SKY/WX    TMP DP  RH WIND       PRES   REMARKS
MEMPHIS        PTCLDY    66  56  70 NW3       30.07R
NASHVILLE      MOCLDY    59  56  89 S5        30.05R

......ARKANSAS.......

CITY           SKY/WX    TMP DP  RH WIND       PRES   REMARKS
FAYETTEVILLE   PTCLDY    53  53 100 CALM      30.13R
FT SMITH       PTCLDY    65  52  62 CALM      30.08S
LITTLE ROCK    PTCLDY    65  58  78 NE3       30.08R

......OKLAHOMA.......

CITY           SKY/WX    TMP DP  RH WIND       PRES   REMARKS
TULSA          PTCLDY    60  54  80 N3        30.09S
PONCA CITY     CLEAR     54  49  83 CALM      30.11S
MCALESTER      CLEAR     54  48  80 CALM      30.10S
OKLAHOMA CITY  CLOUDY    63  51  65 CALM      30.11S

......IOWA............

CITY           SKY/WX    TMP DP  RH WIND       PRES   REMARKS
DES MOINES     CLOUDY    63  56  78 NE7       30.15S
QUAD CITIES    CLOUDY    62  58  86 N5        30.09F

......ILLINOIS........

CITY           SKY/WX    TMP DP  RH WIND       PRES   REMARKS
QUINCY         CLOUDY    61  58  90 NW10      30.08F
CHICAGO        CLOUDY    62  58  86 NE9       30.05S




USA.gov is the U.S. government's official web portal to all federal, state and local government web resources and services.